Regional Weather Roundup
Issued by NWS Green Bay, WI

Home | Current Version | Previous Version | Text Only | Print | Product List | Glossary On
Versions: 1 2 3 4 5 6 7 8 9 10 11 12 13 14 15 16 17 18 19 20 21 22 23 24 25 26 27 28 29 30 31 32 33 34 35 36 37 38 39 40 41 42 43 44 45 46 47 48 49 50
000
ASUS43 KGRB 251310
RWRGRB

NORTH-CENTRAL AND NORTHEAST WISCONSIN REGIONAL WEATHER ROUNDUP
NATIONAL WEATHER SERVICE GREEN BAY WI
800 AM CDT SAT APR 25 2015

WIZ005-009-010>012-018-019-251400-
NORTH CENTRAL WISCONSIN

CITY           SKY/WX    TMP DP  RH WIND       PRES   REMARKS
IRONWOOD       CLOUDY    37  28  70 E6        29.94S
MANITOWISH WTR PTSUNNY   38  19  44 SE6       29.94S
ARBOR VITAE    PTSUNNY   39  17  40 SE7       29.94R
EAGLE RIVER    MOSUNNY   38  15  39 E7        29.95R
LAND O LAKES   SUNNY     38  18  44 SE6       29.96S
RHINELANDER    MOSUNNY   37  17  44 E13       29.94S
PHILLIPS       MOSUNNY   39  18  43 E9        29.92R
ANTIGO         CLOUDY    36  19  50 E10       29.93R
TOMAHAWK       PTSUNNY   39  17  42 E8        29.93S
MERRILL        CLOUDY    39  17  40 E6        29.92S
$$

WIZ013-073-251400-
NORTHEAST WISCONSIN

CITY           SKY/WX    TMP DP  RH WIND       PRES   REMARKS
IRON MOUNTAIN  PTSUNNY   36  20  52 E6        29.97F
MARINETTE      PTSUNNY   37  25  60 E13G20    29.98R
OCONTO         CLOUDY    39  25  57 E9        29.96R
$$

WIZ017-030-035>037-045-251400-
CENTRAL WISCONSIN

CITY           SKY/WX    TMP DP  RH WIND       PRES   REMARKS
MEDFORD        CLOUDY    38  21  50 E10       29.90R
WAUSAU         CLOUDY    38  19  46 E9        29.90S
MOSINEE        CLOUDY    37  21  52 E9        29.91S
MARSHFIELD     CLOUDY    39  25  57 E13       29.89R
WISC RAPIDS    CLOUDY    39  26  59 E12       29.90S
STEVENS POINT  CLOUDY    37  24  58 NE13      29.91S
WAUPACA        CLOUDY    40  27  58 NE7       29.93S
SHAWANO        CLOUDY    40  27  59 E13G18    29.95R
CLINTONVILLE   CLOUDY    37  23  56 E9        29.94R
$$

WIZ038-039-048-051-251400-
FOX VALLEY

CITY           SKY/WX    TMP DP  RH WIND       PRES   REMARKS
NWS GREEN BAY  CLOUDY    41  26  55 E12       29.95R
APPLETON       CLOUDY    39  21  48 NE12G18   29.92R
OSHKOSH        CLOUDY    40  30  67 NE12G21   29.90S
FOND DU LAC    CLOUDY    41  33  73 NE12      29.90R
$$

WIZ022-050-052-251400-
EAST CENTRAL WISCONSIN

CITY           SKY/WX    TMP DP  RH WIND       PRES   REMARKS
STURGEON BAY   CLOUDY    37  21  52 E10       29.98S
MANITOWOC      CLOUDY    40  28  62 NE7G17    29.94R
SHEBOYGAN      CLOUDY    39  29  67 NE16      29.90S
$$

LMZ563-521-522-541>543-251400-
LAKESHORE

STATION/POSITION TIME  TEMP    WIND        PRES    VSBY  WAVE
                       AIR SEA DIR/SP/G                  HT/PER
                 (UTC) (F)     (DEG/KT/KT) (MB)    (MI)  (FT/S)
SHEBOYGAN LKSHOR 1300   38      30/ 14/ 16 1013.6S
KEWAUNEE LKSHORE 1300   37      40/ 14/ 16 1013.5S
NORTHPORT PIER   1300   36      50/  8/ 11 1015.6F
SISTER BAY LKSHO 1300   44     100/  8/ 13   N/A
STURGEON BAY CG  1200   36      60/ 11     1015.1      6   2
CHAMBERS ISLAND  1300   36      30/ 12/ 14 1015.2F
MENOMINEE LKSHOR 1300   37      40/ 17/ 19 1015.5F
$$


USA.gov is the U.S. government's official web portal to all federal, state and local government web resources and services.